Regional Weather Roundup
Issued by NWS

Home | Current Version | Previous Version | Graphics & Text | Print | Product List | Glossary On
Versions: 1 2 3 4 5 6 7 8 9 10 11 12 13 14 15 16 17 18 19 20 21 22 23 24 25 26 27 28 29 30 31 32 33 34 35 36 37 38 39 40 41 42 43 44 45 46 47 48 49 50
000
ASUS44 KMEG 052310
RWRTN
TENNESSEE HOURLY STATE WEATHER ROUNDUP
NATIONAL WEATHER SERVICE MEMPHIS TN
600 PM CDT TUE MAY 05 2015

TNZ002-004-019-021-049-052-054-088>092-060000-
WEST TENNESSEE

CITY           SKY/WX    TMP DP  RH WIND       PRES   REMARKS
MEMPHIS INTL   MOSUNNY   83  50  31 SE13      30.13S
NWS MEMPHIS      N/A     82 N/A N/A MISG        N/A
JACKSON        SUNNY     83  49  30 S8        30.14F
DYERSBURG      SUNNY     82  48  30 SE7       30.14S
PARIS          SUNNY     81  52  36 S9        30.16S
LEXINGTON      SUNNY     81  50  34 S6        30.16S
$$

TNZ008-025-027-028-033-062-065-066-060000-
NORTH MIDDLE TENNESSEE

CITY           SKY/WX    TMP DP  RH WIND       PRES   REMARKS
NASHVILLE      MOSUNNY   83  50  31 S6        30.18S
CLARKSVILLE    PTSUNNY   79  54  41 S5        30.16S
SMYRNA         MOSUNNY   83  53  35 S5        30.18F
COOKEVILLE     SUNNY     79  57  47 CALM      30.20S
CROSSVILLE     SUNNY     79  48  33 NW5       30.24F
$$

TNZ061-075-076-078-094-096-097-060000-
SOUTH MIDDLE TENNESSEE

CITY           SKY/WX    TMP DP  RH WIND       PRES   REMARKS
FAYETTEVILLE     N/A     79  54  41 S6        30.19F
TULLAHOMA      SUNNY     81  52  36 CALM      30.21S
WINCHESTER     MOSUNNY   79  55  44 SE6       30.20S
MCMINNVILLE    MOSUNNY   81  54  39 CALM      30.20F
COLUMBIA       SUNNY     82  54  36 SE6       30.17S
SHELBYVILLE    MOSUNNY   81  61  50 SW5       30.20S
$$

TNZ017-018-042-046-047-060000-
NORTHEAST TENNESSEE

CITY           SKY/WX    TMP DP  RH WIND       PRES   REMARKS
TRI CITIES     CLOUDY    81  45  28 S6        30.22S
ELIZABETHTON   CLOUDY    72  54  53 SE5       30.24F
$$

TNZ012-013-036-069-073-074-060000-
CENTRAL EAST TENNESSEE

CITY           SKY/WX    TMP DP  RH WIND       PRES   REMARKS
KNOXVILLE      MOSUNNY   80  51  36 W5        30.19F
OAK RIDGE      SUNNY     84  49  29 CALM      30.20F
MORRISTOWN     CLEAR     81  50  34 N5        30.22S
$$

TNZ083-085-099-060000-
SOUTHEAST TENNESSEE

CITY           SKY/WX    TMP DP  RH WIND       PRES   REMARKS
CHATTANOOGA    PTSUNNY   81  53  37 S6        30.19F
$$

SKY/WX REPORTED AS FAIR MEANS FEW OR NO CLOUDS BELOW
12 THOUSAND FEET.




USA.gov is the U.S. government's official web portal to all federal, state and local government web resources and services.